Home   Weather   Spartanburg   Past weeks

Flag for USA Past Weather in Spartanburg, South Carolina, USA — Yesterday and Last 2 Weeks

Now
70 °F

Sunny.


Feels Like: 70 °F
Forecast: 63 / 84 °F
Wind: 3 mph from Northwest

Location: Spartanburg Memorial

Current Time: May 29, 2017 at 9:13:39 am

Latest Report: May 29, 2017 at 8:35 am


Visibility: 10 mi

Pressure: 29.97 "Hg

Humidity: 73%

Dew Point: 61 °F

Location of SpartanburgLocation

Past Weather in Spartanburg — Graph

°F

Spartanburg Temperature Yesterday

Maximum temperature yesterday: 81 °F (at 2:35 pm)
Minimum temperature yesterday: 64 °F (at 5:35 am)
Average temperature yesterday: 73 °F

High & Low Weather Summary for the Past Weeks

 TemperatureHumidityPressure
High88 °F (May 16, 3:35 pm)100% (May 21, 9:35 pm)30.18 "Hg (May 21, 9:35 pm)
Low50 °F (May 14, 7:15 am)25% (May 15, 2:35 pm)29.48 "Hg (May 24, 6:35 pm)
Average70 °F70%29.96 "Hg
* Reported May 14 7:15 am — May 29 7:55 am, Spartanburg. Weather by CustomWeather, © 2017

Note: Actual official high and low records may vary slightly from our data, if they occured in-between our weather recording intervals... More about our weather records

Advertising

Spartanburg Weather History for the Previous 24 Hours

Scroll right to see more
 ConditionsComfort  
Time TempWeatherWind HumidityBarometerVisibility
7:55 am
Mon, May 29
66 °FSunny.No wind83%29.96 "Hg10 mi
7:35 am64 °FSunny.No wind83%29.95 "Hg10 mi
7:15 am63 °FSunny.No wind88%29.95 "Hg10 mi
6:55 am63 °FSunny.No wind88%29.95 "Hg10 mi
6:35 am63 °FSunny.No wind88%29.96 "Hg10 mi
6:15 am63 °FClear.3 mph88%29.95 "Hg10 mi
5:55 am63 °FClear.5 mph88%29.94 "Hg10 mi
5:35 am63 °FClear.3 mph88%29.94 "Hg10 mi
4:55 am63 °FClear.3 mph88%29.94 "Hg10 mi
4:35 am63 °FClear.No wind94%29.93 "Hg10 mi
4:15 am63 °FClear.No wind94%29.93 "Hg10 mi
3:55 am64 °FClear.3 mph88%29.92 "Hg10 mi
3:35 am63 °FClear.3 mph94%29.92 "Hg10 mi
3:15 am63 °FClear.3 mph94%29.92 "Hg10 mi
2:55 am63 °FClear.3 mph94%29.92 "Hg10 mi
2:35 am63 °FClear.No wind94%29.91 "Hg10 mi
2:15 am63 °FClear.No wind94%29.90 "Hg10 mi
1:55 am63 °FClear.3 mph94%29.90 "Hg10 mi
1:35 am64 °FClear.No wind88%29.90 "Hg10 mi
1:15 am66 °FClear.No wind88%29.90 "Hg10 mi
12:55 am68 °FClear.3 mph83%29.90 "Hg10 mi
12:35 am68 °FClear.No wind83%29.90 "Hg10 mi
12:15 am68 °FClear.3 mph83%29.90 "Hg10 mi
11:55 pm
Sun, May 28
66 °FClear.5 mph88%29.90 "Hg10 mi
11:35 pm66 °FClear.3 mph88%29.90 "Hg10 mi
10:55 pm70 °FClear.No wind78%29.89 "Hg10 mi
10:35 pm70 °FClear.3 mph78%29.89 "Hg10 mi
10:15 pm70 °FClear.6 mph78%29.89 "Hg10 mi
9:55 pm72 °FClear.5 mph73%29.88 "Hg10 mi
9:35 pm73 °FClear.3 mph69%29.88 "Hg10 mi
8:35 pm77 °FClear.3 mph61%29.87 "Hg10 mi
8:15 pm77 °FSunny.6 mph61%29.86 "Hg10 mi
7:55 pm77 °FSunny.7 mph61%29.86 "Hg10 mi
7:35 pm79 °FSunny.7 mph61%29.86 "Hg7 mi
6:55 pm79 °FSunny.9 mph58%29.86 "Hg10 mi
6:35 pm81 °FSunny.8 mph54%29.86 "Hg10 mi
6:15 pm81 °FScattered clouds.13 mph54%29.86 "Hg10 mi
5:55 pm81 °FScattered clouds.9 mph54%29.86 "Hg10 mi
5:35 pm81 °FScattered clouds.8 mph54%29.87 "Hg10 mi
5:15 pm81 °FSunny.8 mph58%29.86 "Hg10 mi
4:55 pm81 °FSunny.12 mph58%29.86 "Hg10 mi
4:35 pm81 °FSunny.6 mph58%29.86 "Hg10 mi
3:35 pm81 °FSunny.10 mph58%29.86 "Hg10 mi
3:15 pm79 °FSunny.7 mph61%29.86 "Hg7 mi
2:55 pm81 °FSunny.10 mph58%29.86 "Hg10 mi
2:35 pm81 °FSunny.10 mph58%29.86 "Hg10 mi
2:15 pm79 °FSunny.12 mph58%29.87 "Hg10 mi
1:55 pm79 °FSunny.16 mph58%29.88 "Hg10 mi
1:35 pm79 °FSunny.9 mph58%29.89 "Hg7 mi
1:15 pm79 °FSunny.15 mph54%29.89 "Hg10 mi
12:55 pm77 °FSunny.14 mph61%29.90 "Hg10 mi
12:35 pm77 °FSunny.13 mph57%29.90 "Hg10 mi
12:15 pm77 °FSunny.12 mph57%29.90 "Hg10 mi
11:55 am77 °FSunny.10 mph57%29.90 "Hg10 mi
11:35 am75 °FSunny.13 mph61%29.90 "Hg10 mi
11:15 am73 °FSunny.10 mph65%29.90 "Hg10 mi
10:55 am72 °FSunny.9 mph69%29.90 "Hg10 mi
10:35 am72 °FSunny.8 mph69%29.89 "Hg10 mi
10:15 am70 °FSunny.7 mph73%29.87 "Hg10 mi
9:55 am70 °FScattered clouds.5 mph73%29.86 "Hg10 mi
9:35 am68 °FLight rain. Broken clouds.6 mph78%29.86 "Hg10 mi
Weather by CustomWeather, © 2017

See weather overviewHow to use our weather pages